Time,TemperatureF,DewpointF,PressureIn,WindDirection,WindDirectionDegrees,WindSpeedMPH,WindSpeedGustMPH,Humidity,HourlyPrecipIn,Conditions,Clouds,dailyrainin,SoftwareType,DateUTC
2013-03-24 00:00:00,52.2,49.9,30.05,SSW,209,0.0,0.0,92,0.00,,,0.00,Wunderground v.1.15,2013-03-24 07:00:00,
2013-03-24 00:05:00,52.4,50.1,30.05,SSW,209,0.0,0.0,92,0.00,,,0.00,Wunderground v.1.15,2013-03-24 07:05:00,
2013-03-24 00:10:00,52.6,50.6,30.06,SSW,209,0.0,0.0,93,0.00,,,0.00,Wunderground v.1.15,2013-03-24 07:10:00,
2013-03-24 00:15:00,52.9,50.9,30.06,SSW,209,0.0,0.0,93,0.00,,,0.00,Wunderground v.1.15,2013-03-24 07:15:00,
2013-03-24 00:20:00,53.0,51.0,30.06,SSW,209,0.0,0.0,93,0.00,,,0.00,Wunderground v.1.15,2013-03-24 07:20:00,
2013-03-24 00:25:00,52.9,50.9,30.06,SSW,209,0.0,0.0,93,0.00,,,0.00,Wunderground v.1.15,2013-03-24 07:25:00,
2013-03-24 00:30:00,52.6,50.3,30.06,SSW,209,0.0,0.0,92,0.00,,,0.00,Wunderground v.1.15,2013-03-24 07:30:00,
2013-03-24 00:40:00,52.7,50.7,30.05,SSW,209,0.0,0.0,93,0.00,,,0.00,Wunderground v.1.15,2013-03-24 07:40:00,
2013-03-24 00:45:00,52.6,50.6,30.05,SSW,209,0.0,0.0,93,0.00,,,0.00,Wunderground v.1.15,2013-03-24 07:45:00,
2013-03-24 00:55:00,52.4,50.4,30.05,SSW,209,0.0,0.0,93,0.00,,,0.00,Wunderground v.1.15,2013-03-24 07:55:00,
2013-03-24 01:00:00,52.3,50.3,30.05,SSW,209,0.0,0.0,93,0.00,,,0.00,Wunderground v.1.15,2013-03-24 08:00:00,
2013-03-24 01:10:00,52.4,50.7,30.05,SSW,209,0.0,0.0,94,0.00,,,0.00,Wunderground v.1.15,2013-03-24 08:10:00,
2013-03-24 01:15:00,52.3,50.6,30.05,SSW,209,0.0,0.0,94,0.00,,,0.00,Wunderground v.1.15,2013-03-24 08:15:00,
2013-03-24 01:20:00,52.2,50.5,30.05,SSW,209,0.0,0.0,94,0.00,,,0.00,Wunderground v.1.15,2013-03-24 08:20:00,
2013-03-24 01:25:00,52.3,50.6,30.05,SSW,209,0.0,0.0,94,0.00,,,0.00,Wunderground v.1.15,2013-03-24 08:25:00,
2013-03-24 01:30:00,52.4,50.7,30.05,SSW,209,0.0,0.0,94,0.00,,,0.00,Wunderground v.1.15,2013-03-24 08:30:00,
2013-03-24 01:40:00,52.7,51.3,30.05,SSW,209,0.0,0.0,95,0.00,,,0.00,Wunderground v.1.15,2013-03-24 08:40:00,
2013-03-24 01:45:00,52.9,51.5,30.05,SSW,209,0.0,0.0,95,0.00,,,0.00,Wunderground v.1.15,2013-03-24 08:45:00,
2013-03-24 01:55:00,53.1,51.7,30.05,SSW,209,0.0,0.0,95,0.00,,,0.00,Wunderground v.1.15,2013-03-24 08:55:00,
2013-03-24 02:00:00,53.2,51.8,30.05,SSW,209,0.0,0.0,95,0.00,,,0.00,Wunderground v.1.15,2013-03-24 09:00:00,
2013-03-24 02:10:00,53.4,52.0,30.05,SSW,209,0.0,0.0,95,0.00,,,0.00,Wunderground v.1.15,2013-03-24 09:10:00,
2013-03-24 02:15:00,53.5,52.1,30.04,SSW,209,0.0,0.0,95,0.00,,,0.00,Wunderground v.1.15,2013-03-24 09:15:00,
2013-03-24 02:25:00,53.4,51.7,30.05,SSW,209,0.0,0.0,94,0.00,,,0.00,Wunderground v.1.15,2013-03-24 09:25:00,
2013-03-24 02:30:00,53.4,51.7,30.05,SSW,209,0.0,0.0,94,0.00,,,0.00,Wunderground v.1.15,2013-03-24 09:30:00,
2013-03-24 02:35:00,53.4,51.7,30.05,SSW,209,0.0,0.0,94,0.00,,,0.00,Wunderground v.1.15,2013-03-24 09:35:00,
2013-03-24 02:40:00,53.3,51.6,30.04,SSW,210,0.0,0.0,94,0.00,,,0.00,Wunderground v.1.15,2013-03-24 09:40:00,
2013-03-24 02:50:00,53.2,51.5,30.04,NE,51,0.0,0.0,94,0.00,,,0.00,Wunderground v.1.15,2013-03-24 09:50:00,
2013-03-24 02:55:00,53.0,51.3,30.04,NE,51,0.0,0.0,94,0.00,,,0.00,Wunderground v.1.15,2013-03-24 09:55:00,
2013-03-24 03:00:00,52.9,51.2,30.03,NE,51,0.0,0.0,94,0.00,,,0.00,Wunderground v.1.15,2013-03-24 10:00:00,
2013-03-24 03:05:00,52.7,51.0,30.03,NE,51,0.0,0.0,94,0.00,,,0.00,Wunderground v.1.15,2013-03-24 10:05:00,
2013-03-24 03:10:00,52.6,50.9,30.03,NE,51,0.0,0.0,94,0.00,,,0.00,Wunderground v.1.15,2013-03-24 10:10:00,
2013-03-24 03:15:00,52.6,50.9,30.03,NE,51,0.0,0.0,94,0.00,,,0.00,Wunderground v.1.15,2013-03-24 10:15:00,
2013-03-24 03:25:00,52.4,50.7,30.03,NE,51,0.0,0.0,94,0.00,,,0.00,Wunderground v.1.15,2013-03-24 10:25:00,
2013-03-24 03:30:00,52.2,50.5,30.03,NE,51,0.0,0.0,94,0.00,,,0.00,Wunderground v.1.15,2013-03-24 10:30:00,
2013-03-24 03:35:00,52.1,50.4,30.03,NE,51,0.0,0.0,94,0.00,,,0.00,Wunderground v.1.15,2013-03-24 10:35:00,
2013-03-24 03:40:00,51.9,50.2,30.03,NE,51,0.0,0.0,94,0.00,,,0.00,Wunderground v.1.15,2013-03-24 10:40:00,
2013-03-24 03:45:00,51.8,50.4,30.03,NE,51,0.0,0.0,95,0.00,,,0.00,Wunderground v.1.15,2013-03-24 10:45:00,
2013-03-24 03:50:00,51.6,49.9,30.03,NE,51,0.0,0.0,94,0.00,,,0.00,Wunderground v.1.15,2013-03-24 10:50:00,
2013-03-24 04:00:00,51.2,49.8,30.03,NE,51,0.0,0.0,95,0.00,,,0.00,Wunderground v.1.15,2013-03-24 11:00:00,
2013-03-24 04:10:00,51.0,49.6,30.03,NE,51,0.0,0.0,95,0.00,,,0.00,Wunderground v.1.15,2013-03-24 11:10:00,
2013-03-24 04:15:00,50.6,49.2,30.03,NE,51,0.0,0.0,95,0.00,,,0.00,Wunderground v.1.15,2013-03-24 11:15:00,
2013-03-24 04:20:00,50.5,49.1,30.03,NE,51,0.0,0.0,95,0.00,,,0.00,Wunderground v.1.15,2013-03-24 11:20:00,
2013-03-24 04:25:00,50.5,49.1,30.03,NE,51,0.0,1.0,95,0.00,,,0.00,Wunderground v.1.15,2013-03-24 11:25:00,
2013-03-24 04:35:00,50.6,49.5,30.03,NE,51,0.0,0.0,96,0.00,,,0.00,Wunderground v.1.15,2013-03-24 11:35:00,
2013-03-24 04:40:00,50.6,49.5,30.03,NE,51,0.0,0.0,96,0.00,,,0.00,Wunderground v.1.15,2013-03-24 11:40:00,
2013-03-24 04:45:00,50.6,49.5,30.03,NE,51,0.0,0.0,96,0.00,,,0.00,Wunderground v.1.15,2013-03-24 11:45:00,
2013-03-24 04:50:00,50.7,49.6,30.03,NE,51,0.0,0.0,96,0.00,,,0.00,Wunderground v.1.15,2013-03-24 11:50:00,
2013-03-24 04:55:00,50.8,49.7,30.03,NE,51,0.0,0.0,96,0.00,,,0.00,Wunderground v.1.15,2013-03-24 11:55:00,
2013-03-24 05:00:00,50.9,49.8,30.03,NE,51,0.0,0.0,96,0.00,,,0.00,Wunderground v.1.15,2013-03-24 12:00:00,
2013-03-24 05:10:00,50.9,49.8,30.03,NE,51,0.0,0.0,96,0.00,,,0.00,Wunderground v.1.15,2013-03-24 12:10:00,
2013-03-24 05:15:00,51.0,49.9,30.03,NE,51,0.0,0.0,96,0.00,,,0.00,Wunderground v.1.15,2013-03-24 12:15:00,
2013-03-24 05:25:00,51.2,50.1,30.04,NE,51,0.0,0.0,96,0.00,,,0.00,Wunderground v.1.15,2013-03-24 12:25:00,
2013-03-24 05:30:00,51.2,50.1,30.04,NE,51,0.0,0.0,96,0.00,,,0.00,Wunderground v.1.15,2013-03-24 12:30:00,
2013-03-24 05:40:00,51.5,50.4,30.04,NE,51,0.0,0.0,96,0.00,,,0.00,Wunderground v.1.15,2013-03-24 12:40:00,
2013-03-24 05:45:00,51.6,50.5,30.04,NE,51,0.0,0.0,96,0.00,,,0.00,Wunderground v.1.15,2013-03-24 12:45:00,
2013-03-24 05:55:00,51.7,50.6,30.04,NE,51,0.0,0.0,96,0.00,,,0.00,Wunderground v.1.15,2013-03-24 12:55:00,
2013-03-24 06:00:00,51.7,50.6,30.04,NE,51,0.0,0.0,96,0.00,,,0.00,Wunderground v.1.15,2013-03-24 13:00:00,
2013-03-24 06:10:00,51.8,51.0,30.04,NE,51,0.0,0.0,97,0.00,,,0.00,Wunderground v.1.15,2013-03-24 13:10:00,
2013-03-24 06:15:00,51.8,50.7,30.04,NE,51,0.0,0.0,96,0.00,,,0.00,Wunderground v.1.15,2013-03-24 13:15:00,
2013-03-24 06:20:00,51.8,50.7,30.04,NE,51,0.0,0.0,96,0.00,,,0.00,Wunderground v.1.15,2013-03-24 13:20:00,
2013-03-24 06:25:00,51.7,50.6,30.04,NE,51,0.0,0.0,96,0.00,,,0.00,Wunderground v.1.15,2013-03-24 13:25:00,
2013-03-24 06:30:00,51.7,50.6,30.04,NE,51,0.0,0.0,96,0.00,,,0.00,Wunderground v.1.15,2013-03-24 13:30:00,
2013-03-24 06:40:00,51.7,50.6,30.04,NE,51,0.0,0.0,96,0.00,,,0.00,Wunderground v.1.15,2013-03-24 13:40:00,
2013-03-24 06:45:00,51.7,50.6,30.04,NE,51,0.0,0.0,96,0.00,,,0.00,Wunderground v.1.15,2013-03-24 13:45:00,
2013-03-24 06:50:00,51.7,50.6,30.04,NE,51,0.0,0.0,96,0.00,,,0.00,Wunderground v.1.15,2013-03-24 13:50:00,
2013-03-24 07:00:00,51.6,50.5,30.04,NE,51,0.0,1.0,96,0.00,,,0.00,Wunderground v.1.15,2013-03-24 14:00:00,
2013-03-24 07:10:00,51.5,50.7,30.04,NE,51,0.0,0.0,97,0.00,,,0.00,Wunderground v.1.15,2013-03-24 14:10:00,
2013-03-24 07:15:00,51.5,50.7,30.05,NE,51,0.0,0.0,97,0.00,,,0.00,Wunderground v.1.15,2013-03-24 14:15:00,
2013-03-24 07:20:00,51.5,50.7,30.05,NE,51,0.0,0.0,97,0.00,,,0.00,Wunderground v.1.15,2013-03-24 14:20:00,
2013-03-24 07:25:00,51.5,50.7,30.05,NE,51,0.0,0.0,97,0.00,,,0.00,Wunderground v.1.15,2013-03-24 14:25:00,
2013-03-24 07:35:00,51.6,50.8,30.05,NE,51,0.0,0.0,97,0.00,,,0.00,Wunderground v.1.15,2013-03-24 14:35:00,
2013-03-24 07:40:00,51.6,50.8,30.05,NE,51,0.0,0.0,97,0.00,,,0.00,Wunderground v.1.15,2013-03-24 14:40:00,
2013-03-24 07:45:00,51.7,50.9,30.05,NE,51,0.0,0.0,97,0.00,,,0.00,Wunderground v.1.15,2013-03-24 14:45:00,
2013-03-24 07:55:00,51.9,51.1,30.05,NE,51,0.0,0.0,97,0.00,,,0.00,Wunderground v.1.15,2013-03-24 14:55:00,
2013-03-24 08:00:00,52.1,51.3,30.05,NE,51,0.0,0.0,97,0.00,,,0.00,Wunderground v.1.15,2013-03-24 15:00:00,
2013-03-24 08:05:00,52.2,51.4,30.05,NE,51,0.0,0.0,97,0.00,,,0.00,Wunderground v.1.15,2013-03-24 15:05:00,
2013-03-24 08:10:00,52.2,51.4,30.05,NE,51,0.0,0.0,97,0.00,,,0.00,Wunderground v.1.15,2013-03-24 15:10:00,
2013-03-24 08:15:00,52.3,51.5,30.05,NE,51,0.0,0.0,97,0.00,,,0.00,Wunderground v.1.15,2013-03-24 15:15:00,
2013-03-24 08:25:00,52.5,51.7,30.06,NE,50,0.0,0.0,97,0.00,,,0.00,Wunderground v.1.15,2013-03-24 15:25:00,
2013-03-24 08:30:00,52.3,51.2,30.06,NNE,24,0.0,0.0,96,0.00,,,0.00,Wunderground v.1.15,2013-03-24 15:30:00,
2013-03-24 08:40:00,52.5,51.4,30.06,SE,128,0.0,0.0,96,0.00,,,0.00,Wunderground v.1.15,2013-03-24 15:40:00,
2013-03-24 08:45:00,52.7,51.6,30.06,NE,56,0.0,0.0,96,0.00,,,0.00,Wunderground v.1.15,2013-03-24 15:45:00,
2013-03-24 08:50:00,52.5,51.4,30.06,NNW,344,0.0,3.0,96,0.00,,,0.00,Wunderground v.1.15,2013-03-24 15:50:00,
2013-03-24 08:55:00,52.6,51.5,30.06,NNW,334,1.0,3.0,96,0.00,,,0.00,Wunderground v.1.15,2013-03-24 15:55:00,
2013-03-24 09:00:00,53.0,51.9,30.07,West,276,1.0,1.0,96,0.00,,,0.00,Wunderground v.1.15,2013-03-24 16:00:00,
2013-03-24 09:10:00,53.3,51.6,30.07,NNW,329,1.0,1.0,94,0.00,,,0.00,Wunderground v.1.15,2013-03-24 16:10:00,
2013-03-24 09:20:00,54.3,52.0,30.06,NE,37,1.0,1.0,92,0.00,,,0.00,Wunderground v.1.15,2013-03-24 16:20:00,
2013-03-24 09:25:00,55.4,52.2,30.06,NNW,331,1.0,1.0,89,0.00,,,0.00,Wunderground v.1.15,2013-03-24 16:25:00,
2013-03-24 09:30:00,56.0,52.5,30.06,WSW,242,1.0,1.0,88,0.00,,,0.00,Wunderground v.1.15,2013-03-24 16:30:00,
2013-03-24 09:40:00,57.8,52.7,30.06,WNW,294,1.0,1.0,83,0.00,,,0.00,Wunderground v.1.15,2013-03-24 16:40:00,
2013-03-24 09:45:00,58.9,53.4,30.06,North,10,1.0,2.0,82,0.00,,,0.00,Wunderground v.1.15,2013-03-24 16:45:00,
2013-03-24 09:50:00,60.0,53.5,30.06,NNE,30,1.0,1.0,79,0.00,,,0.00,Wunderground v.1.15,2013-03-24 16:50:00,
2013-03-24 09:55:00,60.9,53.6,30.06,SW,223,1.0,1.0,77,0.00,,,0.00,Wunderground v.1.15,2013-03-24 16:55:00,
2013-03-24 10:00:00,61.9,53.9,30.05,WSW,255,0.0,2.0,75,0.00,,,0.00,Wunderground v.1.15,2013-03-24 17:00:00,
2013-03-24 10:10:00,63.1,54.3,30.06,North,355,0.0,2.0,73,0.00,,,0.00,Wunderground v.1.15,2013-03-24 17:10:00,
2013-03-24 10:15:00,63.7,53.7,30.05,North,5,1.0,2.0,70,0.00,,,0.00,Wunderground v.1.15,2013-03-24 17:15:00,
2013-03-24 10:20:00,63.8,53.4,30.05,NE,51,2.0,2.0,69,0.00,,,0.00,Wunderground v.1.15,2013-03-24 17:20:00,
2013-03-24 10:30:00,64.4,54.4,30.05,South,174,1.0,4.0,70,0.00,,,0.00,Wunderground v.1.15,2013-03-24 17:30:00,
2013-03-24 10:35:00,64.7,54.3,30.05,ESE,109,2.0,4.0,69,0.00,,,0.00,Wunderground v.1.15,2013-03-24 17:35:00,
2013-03-24 10:40:00,65.3,54.5,30.05,ESE,113,2.0,2.0,68,0.00,,,0.00,Wunderground v.1.15,2013-03-24 17:40:00,
2013-03-24 10:45:00,66.2,54.9,30.05,North,5,1.0,3.0,67,0.00,,,0.00,Wunderground v.1.15,2013-03-24 17:45:00,
2013-03-24 10:55:00,67.4,55.6,30.04,North,360,2.0,4.0,66,0.00,,,0.00,Wunderground v.1.15,2013-03-24 17:55:00,
2013-03-24 11:05:00,68.1,55.0,30.04,SSE,155,2.0,4.0,63,0.00,,,0.00,Wunderground v.1.15,2013-03-24 18:05:00,
2013-03-24 11:10:00,67.3,54.3,30.04,SE,136,3.0,3.0,63,0.00,,,0.00,Wunderground v.1.15,2013-03-24 18:10:00,
2013-03-24 11:15:00,66.7,54.6,30.04,SSW,201,2.0,4.0,65,0.00,,,0.00,Wunderground v.1.15,2013-03-24 18:15:00,
2013-03-24 11:25:00,67.1,54.9,30.04,SE,128,1.0,2.0,65,0.00,,,0.00,Wunderground v.1.15,2013-03-24 18:25:00,
2013-03-24 11:30:00,67.7,55.1,30.04,West,264,1.0,1.0,64,0.00,,,0.00,Wunderground v.1.15,2013-03-24 18:30:00,
2013-03-24 11:35:00,68.3,55.2,30.03,NNE,29,1.0,1.0,63,0.00,,,0.00,Wunderground v.1.15,2013-03-24 18:35:00,
2013-03-24 11:40:00,69.3,54.8,30.03,SSE,151,1.0,4.0,60,0.00,,,0.00,Wunderground v.1.15,2013-03-24 18:40:00,
2013-03-24 11:45:00,69.2,54.7,30.03,SSW,201,1.0,4.0,60,0.00,,,0.00,Wunderground v.1.15,2013-03-24 18:45:00,
2013-03-24 11:55:00,70.0,55.5,30.03,NW,312,1.0,3.0,60,0.00,,,0.00,Wunderground v.1.15,2013-03-24 18:55:00,
2013-03-24 12:00:00,70.4,54.4,30.03,SE,140,1.0,5.0,57,0.00,,,0.00,Wunderground v.1.15,2013-03-24 19:00:00,
2013-03-24 12:05:00,70.2,54.7,30.03,SSE,167,1.0,5.0,58,0.00,,,0.00,Wunderground v.1.15,2013-03-24 19:05:00,
2013-03-24 12:15:00,70.3,54.3,30.02,SSW,196,2.0,2.0,57,0.00,,,0.00,Wunderground v.1.15,2013-03-24 19:15:00,
2013-03-24 12:20:00,71.2,53.7,30.02,WSW,243,1.0,1.0,54,0.00,,,0.00,Wunderground v.1.15,2013-03-24 19:20:00,
2013-03-24 12:25:00,72.1,54.0,30.02,NW,314,0.0,1.0,53,0.00,,,0.00,Wunderground v.1.15,2013-03-24 19:25:00,
2013-03-24 12:30:00,72.9,53.7,30.02,WSW,244,0.0,0.0,51,0.00,,,0.00,Wunderground v.1.15,2013-03-24 19:30:00,
2013-03-24 12:40:00,72.0,52.3,30.01,ESE,118,1.0,1.0,50,0.00,,,0.00,Wunderground v.1.15,2013-03-24 19:40:00,
2013-03-24 12:50:00,72.9,53.7,30.01,WNW,298,1.0,1.0,51,0.00,,,0.00,Wunderground v.1.15,2013-03-24 19:50:00,
2013-03-24 12:55:00,73.9,53.0,30.01,SE,146,1.0,7.0,48,0.00,,,0.00,Wunderground v.1.15,2013-03-24 19:55:00,
2013-03-24 13:00:00,73.0,51.6,30.00,South,186,2.0,2.0,47,0.00,,,0.00,Wunderground v.1.15,2013-03-24 20:00:00,
2013-03-24 13:10:00,73.4,51.4,30.00,SE,132,2.0,2.0,46,0.00,,,0.00,Wunderground v.1.15,2013-03-24 20:10:00,
2013-03-24 13:15:00,73.8,51.1,30.00,SE,126,1.0,2.0,45,0.00,,,0.00,Wunderground v.1.15,2013-03-24 20:15:00,
2013-03-24 13:20:00,73.7,51.0,30.00,ESE,109,1.0,1.0,45,0.00,,,0.00,Wunderground v.1.15,2013-03-24 20:20:00,
2013-03-24 13:25:00,74.5,51.8,29.99,South,182,1.0,4.0,45,0.00,,,0.00,Wunderground v.1.15,2013-03-24 20:25:00,
2013-03-24 13:30:00,75.1,51.1,29.99,South,174,2.0,2.0,43,0.00,,,0.00,Wunderground v.1.15,2013-03-24 20:30:00,
2013-03-24 13:35:00,75.3,50.0,29.99,SE,136,2.0,2.0,41,0.00,,,0.00,Wunderground v.1.15,2013-03-24 20:35:00,
2013-03-24 13:40:00,75.7,51.6,29.99,East,92,1.0,1.0,43,0.00,,,0.00,Wunderground v.1.15,2013-03-24 20:40:00,
2013-03-24 13:45:00,76.0,51.2,29.99,NW,326,1.0,1.0,42,0.00,,,0.00,Wunderground v.1.15,2013-03-24 20:45:00,
2013-03-24 13:55:00,75.7,49.0,29.98,SSE,163,1.0,5.0,39,0.00,,,0.00,Wunderground v.1.15,2013-03-24 20:55:00,
2013-03-24 14:00:00,75.7,49.7,29.98,SSE,155,2.0,2.0,40,0.00,,,0.00,Wunderground v.1.15,2013-03-24 21:00:00,
2013-03-24 14:05:00,75.1,47.8,29.98,ESE,107,2.0,2.0,38,0.00,,,0.00,Wunderground v.1.15,2013-03-24 21:05:00,
2013-03-24 14:10:00,75.9,49.2,29.98,SW,234,2.0,2.0,39,0.00,,,0.00,Wunderground v.1.15,2013-03-24 21:10:00,
2013-03-24 14:15:00,76.2,48.7,29.97,SSW,198,1.0,2.0,38,0.00,,,0.00,Wunderground v.1.15,2013-03-24 21:15:00,
2013-03-24 14:25:00,76.3,49.5,29.97,SSW,198,1.0,2.0,39,0.00,,,0.00,Wunderground v.1.15,2013-03-24 21:25:00,
2013-03-24 14:30:00,77.6,49.3,29.97,WNW,300,1.0,1.0,37,0.00,,,0.00,Wunderground v.1.15,2013-03-24 21:30:00,
2013-03-24 14:35:00,77.6,48.5,29.97,WNW,287,1.0,1.0,36,0.00,,,0.00,Wunderground v.1.15,2013-03-24 21:35:00,
2013-03-24 14:40:00,77.4,47.6,29.96,North,9,1.0,1.0,35,0.00,,,0.00,Wunderground v.1.15,2013-03-24 21:40:00,
2013-03-24 14:45:00,77.4,49.8,29.96,NE,36,1.0,1.0,38,0.00,,,0.00,Wunderground v.1.15,2013-03-24 21:45:00,
2013-03-24 14:55:00,79.0,51.2,29.96,East,93,1.0,1.0,38,0.00,,,0.00,Wunderground v.1.15,2013-03-24 21:55:00,
2013-03-24 15:00:00,79.4,52.3,29.95,SSE,164,1.0,1.0,39,0.00,,,0.00,Wunderground v.1.15,2013-03-24 22:00:00,
2013-03-24 15:05:00,79.3,52.2,29.95,ENE,78,1.0,1.0,39,0.00,,,0.00,Wunderground v.1.15,2013-03-24 22:05:00,
2013-03-24 15:10:00,79.2,52.1,29.95,SE,130,1.0,4.0,39,0.00,,,0.00,Wunderground v.1.15,2013-03-24 22:10:00,
2013-03-24 15:15:00,78.4,52.1,29.95,West,273,2.0,4.0,40,0.00,,,0.00,Wunderground v.1.15,2013-03-24 22:15:00,
2013-03-24 15:25:00,78.3,52.7,29.95,SW,224,1.0,2.0,41,0.00,,,0.00,Wunderground v.1.15,2013-03-24 22:25:00,
2013-03-24 15:30:00,78.0,53.0,29.95,WNW,301,2.0,2.0,42,0.00,,,0.00,Wunderground v.1.15,2013-03-24 22:30:00,
2013-03-24 15:35:00,77.9,53.0,29.95,SSW,199,2.0,4.0,42,0.00,,,0.00,Wunderground v.1.15,2013-03-24 22:35:00,
2013-03-24 15:45:00,76.8,52.0,29.95,SSE,155,3.0,6.0,42,0.00,,,0.00,Wunderground v.1.15,2013-03-24 22:45:00,
2013-03-24 15:55:00,75.5,52.7,29.95,SSE,159,3.0,6.0,45,0.00,,,0.00,Wunderground v.1.15,2013-03-24 22:55:00,
2013-03-24 16:00:00,74.9,52.7,29.95,SE,129,3.0,4.0,46,0.00,,,0.00,Wunderground v.1.15,2013-03-24 23:00:00,
2013-03-24 16:05:00,74.5,53.5,29.95,SW,223,3.0,4.0,48,0.00,,,0.00,Wunderground v.1.15,2013-03-24 23:05:00,
2013-03-24 16:10:00,74.2,53.8,29.95,SSE,159,3.0,3.0,49,0.00,,,0.00,Wunderground v.1.15,2013-03-24 23:10:00,
2013-03-24 16:20:00,74.1,54.3,29.94,West,269,2.0,4.0,50,0.00,,,0.00,Wunderground v.1.15,2013-03-24 23:20:00,
2013-03-24 16:25:00,74.2,54.9,29.94,NW,308,2.0,4.0,51,0.00,,,0.00,Wunderground v.1.15,2013-03-24 23:25:00,
2013-03-24 16:30:00,74.9,55.0,29.94,SE,128,1.0,1.0,50,0.00,,,0.00,Wunderground v.1.15,2013-03-24 23:30:00,
2013-03-24 16:35:00,75.2,54.7,29.94,ESE,110,1.0,1.0,49,0.00,,,0.00,Wunderground v.1.15,2013-03-24 23:35:00,
2013-03-24 16:40:00,74.7,54.3,29.94,WNW,298,1.0,3.0,49,0.00,,,0.00,Wunderground v.1.15,2013-03-24 23:40:00,
2013-03-24 16:45:00,73.7,54.4,29.94,WSW,245,2.0,3.0,51,0.00,,,0.00,Wunderground v.1.15,2013-03-24 23:45:00,
2013-03-24 16:55:00,73.4,54.2,29.94,West,277,1.0,3.0,51,0.00,,,0.00,Wunderground v.1.15,2013-03-24 23:55:00,
2013-03-24 17:00:00,72.7,54.1,29.94,West,262,1.0,1.0,52,0.00,,,0.00,Wunderground v.1.15,2013-03-25 00:00:00,
2013-03-24 17:05:00,72.7,54.6,29.94,North,5,1.0,1.0,53,0.00,,,0.00,Wunderground v.1.15,2013-03-25 00:05:00,
2013-03-24 17:10:00,72.8,54.1,29.94,SE,138,1.0,2.0,52,0.00,,,0.00,Wunderground v.1.15,2013-03-25 00:10:00,
2013-03-24 17:15:00,72.7,54.1,29.93,SSE,153,1.0,2.0,52,0.00,,,0.00,Wunderground v.1.15,2013-03-25 00:15:00,
2013-03-24 17:25:00,72.1,53.5,29.93,West,266,0.0,1.0,52,0.00,,,0.00,Wunderground v.1.15,2013-03-25 00:25:00,
2013-03-24 17:35:00,70.1,52.7,29.93,NW,305,1.0,1.0,54,0.00,,,0.00,Wunderground v.1.15,2013-03-25 00:35:00,
2013-03-24 17:40:00,69.4,52.5,29.93,WSW,252,1.0,1.0,55,0.00,,,0.00,Wunderground v.1.15,2013-03-25 00:40:00,
2013-03-24 17:45:00,68.8,52.5,29.93,West,271,1.0,5.0,56,0.00,,,0.00,Wunderground v.1.15,2013-03-25 00:45:00,
2013-03-24 17:55:00,68.0,51.7,29.93,WNW,296,1.0,1.0,56,0.00,,,0.00,Wunderground v.1.15,2013-03-25 00:55:00,
2013-03-24 18:00:00,67.6,51.8,29.93,West,263,1.0,2.0,57,0.00,,,0.00,Wunderground v.1.15,2013-03-25 01:00:00,
2013-03-24 18:05:00,67.2,51.4,29.93,SSE,165,1.0,2.0,57,0.00,,,0.00,Wunderground v.1.15,2013-03-25 01:05:00,
2013-03-24 18:10:00,67.0,51.7,29.93,NW,319,0.0,0.0,58,0.00,,,0.00,Wunderground v.1.15,2013-03-25 01:10:00,
2013-03-24 18:15:00,66.7,51.5,29.93,NW,304,0.0,0.0,58,0.00,,,0.00,Wunderground v.1.15,2013-03-25 01:15:00,
2013-03-24 18:25:00,66.3,51.1,29.94,WSW,251,0.0,0.0,58,0.00,,,0.00,Wunderground v.1.15,2013-03-25 01:25:00,
2013-03-24 18:30:00,65.9,49.8,29.94,WSW,250,0.0,0.0,56,0.00,,,0.00,Wunderground v.1.15,2013-03-25 01:30:00,
2013-03-24 18:35:00,65.6,50.0,29.94,WNW,286,0.0,0.0,57,0.00,,,0.00,Wunderground v.1.15,2013-03-25 01:35:00,
2013-03-24 18:45:00,65.4,49.8,29.94,East,99,0.0,0.0,57,0.00,,,0.00,Wunderground v.1.15,2013-03-25 01:45:00,
2013-03-24 18:55:00,65.2,50.0,29.94,East,99,0.0,0.0,58,0.00,,,0.00,Wunderground v.1.15,2013-03-25 01:55:00,
2013-03-24 19:00:00,65.0,49.9,29.94,East,99,0.0,0.0,58,0.00,,,0.00,Wunderground v.1.15,2013-03-25 02:00:00,
2013-03-24 19:05:00,64.7,49.6,29.94,East,99,0.0,0.0,58,0.00,,,0.00,Wunderground v.1.15,2013-03-25 02:05:00,
2013-03-24 19:10:00,64.4,49.8,29.94,East,99,0.0,0.0,59,0.00,,,0.00,Wunderground v.1.15,2013-03-25 02:10:00,
2013-03-24 19:20:00,63.9,49.7,29.94,East,99,0.0,0.0,60,0.00,,,0.00,Wunderground v.1.15,2013-03-25 02:20:00,
2013-03-24 19:25:00,63.5,49.4,29.94,East,99,0.0,0.0,60,0.00,,,0.00,Wunderground v.1.15,2013-03-25 02:25:00,
2013-03-24 19:30:00,63.2,49.1,29.94,East,99,0.0,0.0,60,0.00,,,0.00,Wunderground v.1.15,2013-03-25 02:30:00,
2013-03-24 19:40:00,62.7,49.5,29.95,East,99,0.0,0.0,62,0.00,,,0.00,Wunderground v.1.15,2013-03-25 02:40:00,
2013-03-24 19:45:00,62.3,49.1,29.94,East,99,0.0,0.0,62,0.00,,,0.00,Wunderground v.1.15,2013-03-25 02:45:00,
2013-03-24 19:50:00,62.1,49.4,29.95,East,99,0.0,0.0,63,0.00,,,0.00,Wunderground v.1.15,2013-03-25 02:50:00,
2013-03-24 19:55:00,62.0,49.7,29.95,East,99,0.0,0.0,64,0.00,,,0.00,Wunderground v.1.15,2013-03-25 02:55:00,
2013-03-24 20:05:00,61.4,49.5,29.95,East,99,0.0,0.0,65,0.00,,,0.00,Wunderground v.1.15,2013-03-25 03:05:00,
2013-03-24 20:10:00,61.2,49.7,29.95,East,99,0.0,0.0,66,0.00,,,0.00,Wunderground v.1.15,2013-03-25 03:10:00,
2013-03-24 20:15:00,60.8,49.8,29.95,East,99,0.0,0.0,67,0.00,,,0.00,Wunderground v.1.15,2013-03-25 03:15:00,
2013-03-24 20:20:00,60.2,49.6,29.95,East,99,0.0,0.0,68,0.00,,,0.00,Wunderground v.1.15,2013-03-25 03:20:00,
2013-03-24 20:25:00,59.7,49.5,29.96,East,99,0.0,0.0,69,0.00,,,0.00,Wunderground v.1.15,2013-03-25 03:25:00,
2013-03-24 20:30:00,59.3,49.1,29.96,East,99,0.0,0.0,69,0.00,,,0.00,Wunderground v.1.15,2013-03-25 03:30:00,
2013-03-24 20:40:00,58.4,49.4,29.96,East,99,0.0,0.0,72,0.00,,,0.00,Wunderground v.1.15,2013-03-25 03:40:00,
2013-03-24 20:45:00,58.2,49.2,29.96,East,99,0.0,0.0,72,0.00,,,0.00,Wunderground v.1.15,2013-03-25 03:45:00,
2013-03-24 20:50:00,58.1,49.9,29.96,East,99,0.0,0.0,74,0.00,,,0.00,Wunderground v.1.15,2013-03-25 03:50:00,
2013-03-24 20:55:00,58.1,49.9,29.96,East,99,0.0,0.0,74,0.00,,,0.00,Wunderground v.1.15,2013-03-25 03:55:00,
2013-03-24 21:00:00,57.8,49.6,29.96,East,99,0.0,0.0,74,0.00,,,0.00,Wunderground v.1.15,2013-03-25 04:00:00,
2013-03-24 21:10:00,57.5,49.6,29.96,East,99,0.0,0.0,75,0.00,,,0.00,Wunderground v.1.15,2013-03-25 04:10:00,
2013-03-24 21:15:00,57.2,49.3,29.97,East,99,0.0,0.0,75,0.00,,,0.00,Wunderground v.1.15,2013-03-25 04:15:00,
2013-03-24 21:20:00,56.8,49.3,29.97,East,99,0.0,0.0,76,0.00,,,0.00,Wunderground v.1.15,2013-03-25 04:20:00,
2013-03-24 21:30:00,56.4,49.3,29.97,East,99,0.0,0.0,77,0.00,,,0.00,Wunderground v.1.15,2013-03-25 04:30:00,
2013-03-24 21:40:00,56.1,49.0,29.97,East,99,0.0,0.0,77,0.00,,,0.00,Wunderground v.1.15,2013-03-25 04:40:00,
2013-03-24 21:45:00,56.0,48.9,29.97,East,99,0.0,0.0,77,0.00,,,0.00,Wunderground v.1.15,2013-03-25 04:45:00,
2013-03-24 21:50:00,56.0,48.9,29.97,East,99,0.0,0.0,77,0.00,,,0.00,Wunderground v.1.15,2013-03-25 04:50:00,
2013-03-24 21:55:00,56.0,48.9,29.97,East,99,0.0,0.0,77,0.00,,,0.00,Wunderground v.1.15,2013-03-25 04:55:00,
2013-03-24 22:05:00,56.1,48.6,29.98,East,99,0.0,0.0,76,0.00,,,0.00,Wunderground v.1.15,2013-03-25 05:05:00,
2013-03-24 22:10:00,55.9,48.8,29.98,East,99,0.0,0.0,77,0.00,,,0.00,Wunderground v.1.15,2013-03-25 05:10:00,
2013-03-24 22:15:00,55.5,48.8,29.98,East,99,0.0,0.0,78,0.00,,,0.00,Wunderground v.1.15,2013-03-25 05:15:00,
2013-03-24 22:20:00,55.2,48.8,29.98,East,99,0.0,0.0,79,0.00,,,0.00,Wunderground v.1.15,2013-03-25 05:20:00,
2013-03-24 22:25:00,55.2,48.8,29.98,East,99,0.0,0.0,79,0.00,,,0.00,Wunderground v.1.15,2013-03-25 05:25:00,
2013-03-24 22:30:00,55.2,48.5,29.98,East,99,0.0,0.0,78,0.00,,,0.00,Wunderground v.1.15,2013-03-25 05:30:00,
2013-03-24 22:40:00,55.2,48.5,29.99,East,99,0.0,0.0,78,0.00,,,0.00,Wunderground v.1.15,2013-03-25 05:40:00,
2013-03-24 22:45:00,55.0,48.6,29.99,East,99,0.0,0.0,79,0.00,,,0.00,Wunderground v.1.15,2013-03-25 05:45:00,
2013-03-24 22:55:00,55.0,48.9,29.99,East,99,0.0,0.0,80,0.00,,,0.00,Wunderground v.1.15,2013-03-25 05:55:00,
2013-03-24 23:00:00,55.0,48.9,29.99,East,99,0.0,0.0,80,0.00,,,0.00,Wunderground v.1.15,2013-03-25 06:00:00,
2013-03-24 23:05:00,55.1,49.0,29.99,East,99,0.0,0.0,80,0.00,,,0.00,Wunderground v.1.15,2013-03-25 06:05:00,
2013-03-24 23:15:00,54.9,48.8,29.99,East,99,0.0,0.0,80,0.00,,,0.00,Wunderground v.1.15,2013-03-25 06:15:00,
2013-03-24 23:25:00,54.7,49.3,29.99,East,99,0.0,0.0,82,0.00,,,0.00,Wunderground v.1.15,2013-03-25 06:25:00,
2013-03-24 23:30:00,54.6,49.2,29.99,East,99,0.0,0.0,82,0.00,,,0.00,Wunderground v.1.15,2013-03-25 06:30:00,
2013-03-24 23:35:00,54.6,49.2,29.99,East,99,0.0,0.0,82,0.00,,,0.00,Wunderground v.1.15,2013-03-25 06:35:00,
2013-03-24 23:40:00,54.5,49.4,29.99,East,99,0.0,0.0,83,0.00,,,0.00,Wunderground v.1.15,2013-03-25 06:40:00,
2013-03-24 23:50:00,55.1,50.4,29.99,East,99,0.0,0.0,84,0.00,,,0.00,Wunderground v.1.15,2013-03-25 06:50:00,
2013-03-24 23:55:00,55.3,50.2,29.98,East,99,0.0,0.0,83,0.00,,,0.00,Wunderground v.1.15,2013-03-25 06:55:00,